Weather History for Wink, TX

Change the Weather History Date:

Friday, October 12, 2012

  Actual Average Record
Temperature  
Mean Temperature 78 °F -  
Max Temperature 86 °F 83 °F 98 °F (1979)
Min Temperature 69 °F 51 °F 40 °F (1970)
Cooling Degree Days 12    
Growing Degree Days 28 (Base 50)    
Moisture  
Dew Point 64 °F    
Average Humidity 69    
Maximum Humidity 90    
Minimum Humidity 48    
Precipitation  
Precipitation 0.00 in - - ()
Sea Level Pressure  
Sea Level Pressure 29.91 in    
Wind  
Wind Speed 14 mph (SE)    
Max Wind Speed 20 mph    
Max Gust Speed 29 mph    
Visibility 10 miles    
Events      
Averages and records for this station are not official NWS values.
T = Trace of Precipitation, MM = Missing Value Source: NWS Daily Summary

Daily Weather History Graph

Daily Weather History Graph

Search for Another Location

Airport:

Trip Planner

Search our weather history database for the weather conditions in past years. The results will help you decide how hot, cold, wet, or windy it might be!

Date:

Astronomy

Oct. 12, 2012 Rise Set
Actual Time 7:54 AM CDT 7:23 PM CDT
Civil Twilight 7:29 AM CDT 7:47 PM CDT
Nautical Twilight 7:01 AM CDT 8:16 PM CDT
Astronomical Twilight 6:33 AM CDT 8:44 PM CDT
Moon 4:49 AM CDT (10/12) 5:26 PM CDT (10/12)
Length of Visible Light 12h 18m
Length of Day
11h 29m
Waning Crescent, 10% of the Moon is Illuminated
Oct 12
Waning Crescent
Oct 15
New
Oct 21
First Quarter
Oct 29
Full
Nov 6
Last Quarter

Hourly Weather History & Observations

Time (CDT) Temp. Heat Index Dew Point Humidity Pressure Visibility Wind Dir Wind Speed Gust Speed Precip Events Conditions
12:53 AM 72.0 °F - 64.9 °F 78% 29.92 in 10.0 mi ESE 12.7 mph - N/A   Clear
1:53 AM 72.0 °F - 64.0 °F 76% 29.91 in 10.0 mi SE 13.8 mph - N/A   Clear
2:53 AM 71.6 °F - 64.4 °F 78% 30.05 in 10.0 mi SE 13.8 mph - N/A   Clear
3:53 AM 71.1 °F - 63.0 °F 75% 29.90 in 10.0 mi SE 13.8 mph - N/A   Clear
4:53 AM 71.1 °F - 64.0 °F 78% 29.89 in 10.0 mi SE 15.0 mph - N/A   Clear
5:53 AM 70.0 °F - 64.0 °F 81% 29.90 in 10.0 mi SE 11.5 mph - N/A   Clear
6:53 AM 69.1 °F - 64.0 °F 84% 29.89 in 10.0 mi ESE 9.2 mph - N/A   Clear
7:53 AM 69.1 °F - 66.0 °F 90% 29.92 in 10.0 mi SE 12.7 mph - 0.00 in   Partly Cloudy
8:53 AM 70.0 °F - 66.0 °F 87% 29.94 in 9.0 mi SE 13.8 mph - N/A   Mostly Cloudy
9:53 AM 71.1 °F - 66.0 °F 84% 29.97 in 9.0 mi SSE 18.4 mph 27.6 mph N/A   Clear
10:53 AM 73.4 °F - 66.2 °F 78% 30.09 in 10.0 mi SSE 17.3 mph 24.2 mph N/A   Scattered Clouds
11:53 AM 78.1 °F - 64.9 °F 64% 29.96 in 10.0 mi SSE 19.6 mph 25.3 mph N/A   Clear
12:53 PM 79.0 °F - 64.9 °F 62% 29.94 in 10.0 mi SE 15.0 mph - N/A   Partly Cloudy
1:53 PM 82.0 °F 83.8 °F 64.9 °F 56% 29.92 in 10.0 mi SSE 15.0 mph 24.2 mph N/A   Partly Cloudy
2:53 PM 84.0 °F 85.4 °F 64.0 °F 51% 29.88 in 10.0 mi SSE 13.8 mph 21.9 mph N/A   Clear
3:53 PM 86.0 °F 87.3 °F 64.0 °F 48% 29.86 in 10.0 mi SE 16.1 mph 20.7 mph N/A   Clear
4:53 PM 84.2 °F 85.0 °F 62.6 °F 48% 29.98 in 10.0 mi SE 13.8 mph 21.9 mph N/A   Clear
5:53 PM 82.0 °F 83.4 °F 64.0 °F 54% 29.83 in 10.0 mi SE 18.4 mph 27.6 mph N/A   Clear
6:53 PM 79.0 °F - 64.9 °F 62% 29.84 in 10.0 mi SE 16.1 mph 21.9 mph N/A   Clear
7:53 PM 77.0 °F - 64.0 °F 64% 29.84 in 10.0 mi SE 15.0 mph - N/A   Clear
8:53 PM 75.2 °F - 62.6 °F 65% 29.96 in 10.0 mi SE 18.4 mph 25.3 mph N/A   Clear
9:53 PM 75.0 °F - 62.1 °F 64% 29.85 in - SE 17.3 mph 25.3 mph N/A   Clear
10:53 PM 75.0 °F - 61.0 °F 62% 29.85 in - SSE 17.3 mph 28.8 mph N/A   Partly Cloudy
11:53 PM 73.9 °F - 61.0 °F 64% 29.83 in - SE 13.8 mph 23.0 mph N/A   Clear